Welcome to the New NWS' Forecast!
Most changes are behind the scenes, but click here for differences you might notice.
Latest weather observations around

Huntsville, Madison County Executive Airport (KMDQ)

Using English Units (Switch to International System of Units)
Date/ Time (CST) Wind (mph) Vis. (mi) Weather Sky Cond. Temp (°F) Rel. Humidity Wind Chill (°F) Heat Index (°F) Pressure Precip. (in)
Air Dwpt 6 hour Altimeter (inHg) Sea level (inHg) 1 hr 3 hr 6 hr
Max Min
Nov 16 16:10 Calm 10 Clear CLR 53 37     55%     30.14        
Nov 16 15:50 W 3 10 Clear CLR 54 36     52%     30.13        
Nov 16 15:30 W 5 10 Clear CLR 54 36     51%     30.13        
Nov 16 15:10 WSW 5 10 Clear CLR 54 36     50%     30.13        
Nov 16 14:50 W 3 10 Clear CLR 54 36     51%     30.13        
Nov 16 14:30 WSW 3 10 Clear CLR 54 36     51%     30.12        
Nov 16 14:10 W 6 10 Clear CLR 54 36     50%     30.12        
Nov 16 13:50 W 6 10 Clear CLR 54 36     50%     30.12        
Nov 16 13:30 WNW 3 10 Clear CLR 54 36     51%     30.12        
Nov 16 13:10 W 3 10 Clear CLR 54 36     50%     30.12        
Nov 16 12:50 WSW 6 10 Clear CLR 53 35     50%     30.12        
Nov 16 12:30 WSW 6 10 Clear   53 35     52%     30.13        
Nov 16 12:10 WSW 3 10 Clear   51 35     53%     30.14        
Nov 16 11:50 WSW 3 10 Clear   50 34     52%     30.14        
Nov 16 11:30 WSW 8 10 Clear CLR 49 33     55% 46   30.15        
Nov 16 11:10 WSW 9 10 Clear CLR 48 33     55% 44   30.16        
Nov 16 10:50 SW 8 10 Clear CLR 47 33     56% 43   30.17        
Nov 16 10:30 S 5 10 Clear CLR 45 32     60% 43   30.18        
Nov 16 10:10 S 7 10 Clear CLR 44 31     61% 40   30.19        
Nov 16 09:50 SSE 7 10 Clear CLR 43 31     64% 38   30.19        
Nov 16 09:30 S 7 10 Clear CLR 41 31     66% 36   30.2        
Nov 16 09:10 S 6 10 Clear CLR 40 31     70% 36   30.2        
Nov 16 08:50 SSE 3 10 Clear CLR 38 32     79% 35   30.2        
Nov 16 08:30 S 6 10 Clear CLR 36 31     82% 31   30.2        
Nov 16 08:10 SE 5 10 Clear CLR 33 30     87% 29   30.21        
Nov 16 07:50 SE 6 10 Clear CLR 32 29     89% 26   30.21        
Nov 16 07:30 SE 5 10 Clear CLR 30 28     90% 25   30.21        
Nov 16 07:10 SE 5 10 Clear CLR 30 27     91% 25   30.2        
Nov 16 06:50 SE 6 10 Clear CLR 29 27     93% 22   30.2        
Nov 16 06:30 SE 6 10 Clear   28 26     94% 21   30.2        
Nov 16 06:10 SE 5 10 Clear   27 26     94% 22   30.2        
Nov 16 05:50 Calm 10 Clear   27 25     94%     30.2        
Nov 16 05:30 S 3 10 Clear CLR 27 26     94% 23   30.2        
Nov 16 05:10 SSE 3 10 Clear CLR 27 26     94% 24   30.2        
Nov 16 04:50 SE 5 10 Clear CLR 28 26     94% 22   30.2        
Nov 16 04:30 SE 5 10 Clear CLR 27 26     94% 22   30.19        
Nov 16 04:10 SSE 3 10 Clear CLR 27 26     94% 23   30.19        
Nov 16 03:50 Calm 10 Clear CLR 27 26     94%     30.18        
Nov 16 03:30 SE 3 10 Clear CLR 27 26     94% 23   30.18        
Nov 16 03:10 Calm 10 Clear CLR 27 26     94%     30.18        
Nov 16 02:50 Calm 10 Clear CLR 27 26     94%     30.18        
Nov 16 02:30 Calm 10 Clear CLR 27 26     94%     30.19        
Nov 16 02:10 Calm 10 Clear CLR 27 26     96%     30.19        
Nov 16 01:50 Calm 10 Clear CLR 27 27     96%     30.18        
Nov 16 01:30 Calm 10 Clear CLR 27 26     94%     30.18        
Nov 16 01:10 Calm 10 Clear CLR 27 26     94%     30.18        
Nov 16 00:50 Calm 10 Clear CLR 28 26     93%     30.18        
Nov 16 00:30 Calm 10 Clear CLR 27 26     94%     30.18        
Nov 16 00:10 Calm 10 Clear CLR 29 27     92%     30.18        
Nov 15 23:50 Calm 10 Clear CLR 28 26     93%     30.18        
Nov 15 23:30 Calm 10 Clear CLR 28 26     92%     30.18        
Nov 15 23:10 Calm 10 Clear CLR 29 27     92%     30.17        
Nov 15 22:50 Calm 10 Clear CLR 29 27     91%     30.18        
Nov 15 22:30 Calm 10 Partly Cloudy SCT023 29 27     92%     30.19        
Nov 15 22:10 Calm 10 Partly Cloudy SCT025 30 26     84%     30.2        
Nov 15 21:50 W 5 10 Clear CLR 31 26     84% 26   30.21        
Nov 15 21:30 NW 6 10 Mostly Cloudy BKN020 31 26     80% 26   30.21        
Nov 15 21:10 WNW 7 10 Cloudy OVC020 33 26     78% 26   30.21        
Nov 15 20:50 W 8 10 Cloudy OVC020 33 27     79% 25   30.21        
Nov 15 20:30 WNW 7 10 Cloudy OVC020 32 27     81% 26   30.2        
Nov 15 20:10 WNW 7 10 Cloudy OVC020 32 27     81% 26   30.19        
Nov 15 19:50 WNW 5 10 Cloudy OVC020 32 27     80% 28   30.19        
Nov 15 19:30 W 8 10 Cloudy OVC020 32 27     80% 25   30.19        
Nov 15 19:10 WNW 7 10 Cloudy OVC020 32 27     81% 26   30.18        
Nov 15 18:50 WNW 8 10 Cloudy OVC020 32 26     80% 25   30.18        
Nov 15 18:30 WNW 6 10 Cloudy OVC020 32 26     80% 26   30.17        
Nov 15 18:10 W 10 10 Cloudy OVC020 32 26     79% 24   30.17        
Nov 15 17:50 WNW 8 10 Cloudy OVC018 32 27     80% 25   30.17       0
Nov 15 17:30 W 8 10 Cloudy OVC014 32 27     83% 25   30.16        
Nov 15 17:10 W 9 10 Cloudy OVC014 32 27     83% 24   30.14        
Nov 15 16:50 NW 7 10 Cloudy OVC014 32 27     83% 26   30.14        
Nov 15 16:30 W 10 10 Cloudy OVC016 32 27     81% 24   30.14        
Nov 15 16:10 W 7 10 Cloudy OVC018 32 27     81% 26   30.13        
Nov 15 15:50 W 9 10 Cloudy OVC016 32 27     81% 24   30.13   0    
Nov 15 15:30 W 7 10 Cloudy OVC018 32 27     81% 25   30.13        
Nov 15 15:10 W 8 10 Cloudy OVC015 31 27     83% 24   30.12        
Nov 15 14:50 W 9 10 Cloudy OVC015 32 27     81% 24   30.12        
Nov 15 14:30 W 8 10 Cloudy OVC017 32 26     80% 24   30.13        
Nov 15 14:10 W 8 10 Cloudy OVC017 32 26     79% 25   30.13        
Nov 15 13:50 W 13 10 Cloudy OVC015 32 27     82% 22   30.13        
Nov 15 13:30 W 7 10 Cloudy OVC011 32 28     85% 25   30.13        
Nov 15 13:10 W 10 10 Cloudy OVC009 31 28     87% 23   30.12        
Nov 15 12:50 WSW 10 10 Cloudy OVC011 32 29     88% 23   30.12        
Nov 15 12:30 WSW 13 10 Cloudy OVC013 32 28     85% 23   30.13        
Nov 15 12:10 W 7 10 Cloudy OVC017 33 27     80% 27   30.12        
Nov 15 11:50 W 7 10 Cloudy BKN015 OVC022 33 28     82% 27   30.13        
Nov 15 11:30 W 6 10 Cloudy SCT016 OVC021 33 28     83% 27   30.15        
Nov 15 11:10 W 11 10 Cloudy BKN015 OVC023 33 28     83% 24   30.16        
Nov 15 10:50 WNW 11 10 Cloudy BKN013 OVC018 32 29     86% 23   30.17        
Nov 15 10:30 W 8 10 Cloudy OVC015 32 28     85% 25   30.17        
Nov 15 10:10 WSW 9 10 Cloudy OVC013 32 28     86% 24   30.17        
Nov 15 09:50 W 8 10 Cloudy OVC013 32 29     87% 25   30.17        
Nov 15 09:30 W 6 10 Cloudy OVC015 32 28     86% 27   30.17        
Nov 15 09:10 SW 5 10 Cloudy BKN017 OVC022 33 28     83% 28   30.17        
Nov 15 08:50 W 6 10 Cloudy SCT014 OVC022 32 28     83% 27   30.17        
Nov 15 08:30 W 6 10 Cloudy SCT007 OVC022 32 29     88% 26   30.17        
Nov 15 08:10 WSW 7 7 Unknown Precipitation OVC007 31 29     92% 25   30.17        
Nov 15 07:50 WNW 7 7 Cloudy OVC007 31 29     92% 25   30.17        
Nov 15 07:30 W 7 7 Cloudy OVC007 31 29     92% 25   30.17        
Nov 15 07:10 W 7 10 Cloudy OVC009 31 29     91% 25   30.18        
Nov 15 06:50 W 7 10 Cloudy OVC009 32 29     91% 25   30.18        
Nov 15 06:30 W 7 10 Cloudy OVC009 32 29     91% 25   30.17        
Nov 15 06:10 W 6 10 Cloudy OVC011 32 29     90% 26   30.16        
Nov 15 05:50 W 9 10 Cloudy OVC011 32 29     88% 24   30.16        
Nov 15 05:30 WSW 7 10 Cloudy OVC011 32 29     89% 26   30.15        
Nov 15 05:10 WSW 7 10 Cloudy OVC013 33 30     90% 26   30.16        
Nov 15 04:50 WSW 6 10 Cloudy BKN013 OVC018 33 31     92% 27   30.15        
Nov 15 04:30 W 7 7 Light Snow and Fog/Mist SCT008 OVC014 33 31     93% 27   30.14        
Nov 15 04:10 W 6 3.5 Light Snow and Fog/Mist OVC008 33 31     94% 27   30.13        
Nov 15 03:50 WSW 3 10 Cloudy OVC010 34 32     92% 31   30.13        
Nov 15 03:30 WSW 9 10 Cloudy OVC008 33 31     92% 26   30.13        
Nov 15 03:10 WSW 7 7 Cloudy OVC010 34 32     93% 28   30.15        
Nov 15 02:50 W 7 5 Fog/Mist BKN007 OVC012 34 33     95% 28   30.15        
Nov 15 02:30 WSW 10 3.5 Fog/Mist BKN004 OVC009 34 33     96% 26   30.16        
Nov 15 02:10 W 7 7 Cloudy OVC006 34 33     95% 28   30.16        
Nov 15 01:50 W 7 10 Cloudy OVC008 34 32     92% 28   30.16        
Nov 15 01:30 W 7 10 Cloudy OVC010 34 32     90% 28   30.15        
Nov 15 01:10 W 9 10 Cloudy BKN006 OVC012 35 33     94% 27   30.15        
Nov 15 00:50 W 7 10 Cloudy OVC006 35 33     94% 29   30.15        
Nov 15 00:30 WSW 10 10 Cloudy OVC004 35 34     95% 27   30.16        
Nov 15 00:10 SW 9 10 Cloudy OVC006 35 34     95% 28   30.16        
Nov 14 23:50 SW 11 10 Light Drizzle OVC008 35 34     94% 27   30.17       0
Nov 14 23:30 WSW 9 7 Light Drizzle BKN008 OVC012 36 34     94% 29   30.16        
Nov 14 23:10 WSW 9 10 Light Drizzle SCT005 BKN008 OVC042 36 35     94% 29   30.16        
Nov 14 22:50 SW 9 4 Light Drizzle and Fog/Mist BKN005 BKN022 OVC037 36 35     97% 29   30.17        
Nov 14 22:30 WSW 7 5 Drizzle and Fog/Mist SCT007 BKN024 OVC039 36 35     96% 31   30.17        
Nov 14 22:10 WSW 9 5 Drizzle and Fog/Mist SCT007 BKN010 OVC039 37 36     95% 30   30.18        
Nov 14 21:50   5 Rain and Fog/Mist BKN007 OVC012 38 37     96%     30.17        
Nov 14 21:30 WSW 3 2.5 Light Rain and Fog/Mist OVC006 38 38     97% 36   30.17        
Nov 14 21:10 Calm 3.5 Light Rain and Fog/Mist BKN004 BKN009 OVC029 38 38     97%     30.18        
Nov 14 20:50 SSW 6 2.5 Rain and Fog/Mist OVC004 38 38     97% 34   30.18     0  
Nov 14 20:30 Calm 2 Light Rain and Fog/Mist OVC004 38 38     97%     30.17        
Nov 14 20:10 W 6 4 Light Rain and Fog/Mist OVC004 39 38     96% 35   30.15        
Nov 14 19:50 W 7 3 Light Rain and Fog/Mist OVC004 39 38     97% 34   30.15        
Nov 14 19:30 W 5 2.5 Light Rain and Fog/Mist OVC004 39 38     97% 36   30.16        
Nov 14 19:10 Calm 5 Light Rain and Fog/Mist BKN005 BKN010 OVC017 39 38     97%     30.16        
Nov 14 18:50 WSW 3 5 Light Rain and Fog/Mist BKN005 BKN009 OVC015 39 38     97% 37   30.17        
Nov 14 18:30 W 3 4 Light Rain and Fog/Mist SCT009 OVC015 39 38     97% 37   30.16        
Nov 14 18:10 Calm 4 Light Rain and Fog/Mist SCT006 OVC013 39 38     97%     30.15        
Nov 14 17:50 W 5 4 Light Rain and Fog/Mist OVC004 39 38     97% 35   30.16        
Nov 14 17:30 Calm 3 Light Rain and Fog/Mist BKN006 OVC014 39 38     97%     30.15        
Nov 14 17:10 NNW 6 3 Light Rain and Fog/Mist OVC006 39 38     97% 35   30.16        
Nov 14 16:50 WNW 7 3 Light Rain and Fog/Mist OVC006 39 38     96% 34   30.17        
Nov 14 16:30 WNW 6 4 Light Rain and Fog/Mist OVC006 40 39     96% 36   30.17        
Nov 14 16:10 WNW 7 4 Light Rain and Fog/Mist OVC006 40 39     96% 36   30.17        
Nov 14 15:50 WNW 6 4 Light Rain and Fog/Mist OVC004 41 40     96% 37   30.16        
Nov 14 15:30 WNW 5 3.5 Light Rain and Fog/Mist OVC004 42 41     97% 39   30.16        
Nov 14 15:10 NNW 5 3.5 Light Rain and Fog/Mist OVC004 42 41     97% 39   30.15        
Nov 14 14:50 NNW 6 5 Light Rain and Fog/Mist OVC004 42 41     96% 38   30.15        
Nov 14 14:30 WNW 6 7 Light Rain and Fog/Mist OVC004 42 41     97% 38   30.17        
Nov 14 14:10 NNW 6 5 Light Rain and Fog/Mist OVC004 42 41     97% 38   30.16        
Nov 14 13:50 NNW 6 5 Light Rain and Fog/Mist OVC006 42 41     97% 38   30.16        
Nov 14 13:30 NNE 5 3.5 Light Rain and Fog/Mist OVC004 42 41     97% 39   30.16        
Nov 14 12:30 Calm 2 Light Drizzle and Fog/Mist OVC004 42 41     97%     30.19        
Nov 14 12:10 ENE 6 2 Heavy Drizzle and Fog/Mist OVC004 41 40     97% 37   30.2        
Nov 14 11:50 ENE 6 1.75 Light Drizzle and Fog/Mist OVC004 40 40     97% 36   30.21        
Nov 14 11:30 NNE 7 1.75 Heavy Drizzle and Fog/Mist OVC006 40 39     97% 35   30.24        
Nov 14 11:10 N 9 2 Light Drizzle and Fog/Mist OVC009 41 39     94% 35   30.27        
Nov 14 10:50 N 8 10 Cloudy OVC011 41 38     89% 36   30.27        
Nov 14 10:30 N 7 10 Cloudy OVC011 41 38     87% 37   30.27        
Nov 14 10:10 NNE 8 10 Cloudy OVC011 41 37     87% 36   30.28        
Nov 14 09:50 NNE 8 10 Cloudy OVC011 41 37     88% 35   30.28        
Nov 14 09:30 NNE 7 10 Cloudy OVC011 40 37     88% 36   30.28        
Nov 14 09:10 NNE 6 10 Cloudy OVC011 40 37     89% 36   30.28        
Nov 14 08:50 N 8 7 Cloudy OVC013 40 37     91% 34   30.29        
Nov 14 08:30 NNE 7 7 Cloudy OVC013 39 37     91% 34   30.29        
Nov 14 08:10 NNE 8 7 Light Drizzle and Fog/Mist OVC011 39 36     91% 33   30.29        
Nov 14 07:50 N 6 5 Light Drizzle and Fog/Mist OVC009 39 36     91% 35   30.3        
Nov 14 07:30 NNE 7 7 Fog/Mist OVC009 39 36     89% 34   30.29        
Nov 14 07:10 N 9 7 Fog/Mist OVC009 39 36     89% 32   30.29        
Nov 14 06:50 NE 8 7 Fog/Mist OVC007 38 36     90% 32   30.27        
Nov 14 06:30 NNE 9 7 Fog/Mist OVC007 38 35     90% 32   30.3        
Nov 14 06:10 NNE 7 7 Cloudy OVC007 38 35     91% 33   30.3        
Nov 14 05:50 NNE 11 7 Fog/Mist OVC007 38 35     91% 30   30.3        
Nov 14 05:30 NNE 9 7 Fog/Mist OVC007 38 35     91% 31   30.32        
Nov 14 05:10 NE 7 7 Cloudy OVC007 38 35     91% 32   30.3        
Nov 14 04:50 NE 8 7 Cloudy OVC007 38 35     92% 32   30.29        
Nov 14 04:30 NNE 8 5 Fog/Mist OVC005 37 35     93% 31   30.3        
Nov 14 04:10 N 11 5 Fog/Mist OVC005 37 35     94% 29   30.31        
Nov 14 03:50 NNE 10 5 Fog/Mist OVC005 36 35     94% 29   30.3        
Nov 14 03:30 N 14 5 Fog/Mist OVC005 37 35     94% 28   30.32        
Nov 14 03:10 N 11 5 Fog/Mist OVC005 36 35     94% 29   30.32        
Nov 14 02:50 N 13 5 Fog/Mist OVC005 36 35     95% 28   30.29        
Nov 14 02:30 N 13 5 Fog/Mist OVC005 36 35     94% 27   30.29        
Nov 14 02:10 N 13 5 Fog/Mist OVC005 36 34     94% 27   30.3        
Nov 14 01:50 N 11 5 Fog/Mist OVC005 36 34     95% 28   30.3        
Nov 14 01:30 N 10 5 Fog/Mist OVC005 36 35     95% 28   30.31        
Nov 14 01:10 N 9 4 Fog/Mist OVC005 36 34     95% 29   30.31        
Nov 14 00:50 N 11 5 Fog/Mist OVC005 35 34     96% 27   30.31        
Nov 14 00:30 N 11 5 Fog/Mist OVC005 35 34     96% 27   30.31        
Nov 14 00:10 N 10 4 Fog/Mist OVC005 35 34     95% 27   30.31        
Nov 13 23:50 N 14 4 Fog/Mist OVC005 35 34     96% 26   30.31       0
Nov 13 23:30 N 8 4 Fog/Mist OVC005 35 34     95% 29   30.3        
Nov 13 23:10 N 14 3.5 Fog/Mist OVC005 35 34     96% 26   30.32        
Nov 13 22:50 N 16 4 Fog/Mist OVC005 35 34     95% 25   30.32        
Nov 13 22:30 N 9 4 Fog/Mist OVC005 35 34     95% 28   30.32        
Nov 13 22:10 N 10 5 Fog/Mist OVC005 35 34     95% 28   30.33        
Nov 13 21:50 NNE 7 4 Fog/Mist OVC005 35 34     94% 30   30.32        
Nov 13 21:30 N 15 4 Fog/Mist OVC005 35 34     95% 26   30.33        
Nov 13 21:10 N 14 4 Fog/Mist OVC005 35 34     95% 26   30.33        
Nov 13 20:50 N 14 4 Fog/Mist OVC005 36 35     95% 27   30.32   0 0  
Nov 13 20:30 N 14 4 Fog/Mist OVC005 36 35     94% 27   30.33        
Nov 13 20:10 N 13 4 Fog/Mist OVC005 36 35     95% 27   30.33        
Nov 13 19:50   4 Fog/Mist OVC005 36 35     95%     30.32        
Nov 13 19:30 N 14 5 Fog/Mist OVC005 36 35     94% 27   30.32        
Nov 13 19:10 N 17 4 Fog/Mist OVC005 36 34     94% 26   30.32        
Nov 13 18:50 N 15 4 Fog/Mist OVC005 36 35     95% 27   30.29        
Nov 13 18:30 N 16 4 Fog/Mist OVC005 37 35     94% 27   30.3        
Nov 13 18:10 N 14 4 Fog/Mist OVC005 37 35     94% 28   30.3        
Nov 13 17:50 N 15 5 Fog/Mist OVC005 37 36     94% 28   30.3        
Nov 13 17:30 N 17 10 Cloudy OVC007 38 36     90% 29   30.29        
Nov 13 17:10 N 13 10 Cloudy OVC009 38 36     89% 31   30.29        
Nov 13 16:50 N 15 10 Cloudy OVC011 39 36     87% 31   30.29        
Nov 13 16:30 N 10 10 Cloudy OVC011 39 35     86% 33   30.29        
Nov 13 16:10   10 Cloudy OVC009 39 36     87%     30.28        
Nov 13 15:50 N 13 10 Cloudy OVC009 39 36     87% 32   30.27        
Nov 13 15:30 N 13 10 Cloudy OVC011 40 36     86% 32   30.28        
Nov 13 15:10 N 14 10 Cloudy OVC011 40 36     86% 32   30.27        
Nov 13 14:50 N 11 10 Cloudy OVC011 40 36     86% 33   30.25        
Nov 13 14:30 N 14 10 Cloudy OVC011 40 35     85% 32   30.26        
Nov 13 14:10   10 Cloudy OVC011 40 36     86%     30.25        
Nov 13 13:50 N 16 10 Cloudy OVC010 40 36     86% 31   30.25        
Nov 13 13:30 N 13 10 Cloudy OVC010 40 36     87% 32   30.24        
Nov 13 13:10 N 13 10 Cloudy OVC009 40 36     87% 32   30.24        
Nov 13 12:50 N 15 10 Cloudy OVC009 40 36     86% 32   30.24        
Nov 13 12:30 N 14 10 Cloudy OVC009 40 37     87% 33   30.25        
Nov 13 12:10 N 16 10 Cloudy OVC009 40 36     87% 32   30.25        
Nov 13 11:50 N 16 10 Cloudy OVC009 40 37     89% 31   30.23   0   0
Nov 13 11:30 N 13 10 Cloudy OVC007 40 37     89% 32   30.24   0    
Nov 13 11:10   10 Cloudy OVC009 40 37     90%     30.25        
Nov 13 10:50 NNW 16 10 Cloudy OVC009 40 38     91% 32   30.25        
Nov 13 10:30 N 17 10 Cloudy OVC009 40 38     91% 32   30.24        
Nov 13 10:10 N 10 10 Cloudy OVC009 41 38     89% 35   30.24        
Nov 13 09:50 N 13 10 Cloudy OVC009 41 38     89% 34   30.24        
Nov 13 09:30 N 10 10 Cloudy OVC009 41 38     90% 35   30.23        
Nov 13 09:10 N 14 10 Cloudy OVC009 41 38     90% 33   30.22        
Nov 13 08:50 N 9 10 Cloudy OVC011 42 39     90% 36   30.21        
Nov 13 08:30 N 15 10 Cloudy OVC009 41 38     89% 34   30.21        
Nov 13 08:10 N 16 10 Cloudy OVC007 41 39     91% 33   30.2        
Nov 13 07:50 N 14 10 Cloudy OVC007 41 39     93% 33   30.19        
Nov 13 07:30 N 11 10 Cloudy OVC007 41 39     93% 34   30.18        
Nov 13 07:10 N 15 10 Cloudy OVC007 41 39     94% 33   30.18        
Nov 13 06:50 N 14 10 Cloudy OVC007 41 39     94% 33   30.17        
Nov 13 06:30 N 14 5 Fog/Mist OVC007 42 40     93% 34   30.16        
Nov 13 06:10 NNW 18 10 Cloudy OVC007 42 40     94% 34   30.15        
Nov 13 05:50 NNW 16 10 Cloudy OVC007 43 41     95% 35   30.13       0
Nov 13 05:30 NNW 16 10 Cloudy BKN007 OVC017 43 42     95% 36   30.12        
Nov 13 05:10 N 14 10 Light Rain BKN007 OVC017 44 42     93% 37   30.12        
Nov 13 04:50 N 14 3 Light Rain and Fog/Mist OVC005 44 43     95% 38   30.11        
Nov 13 04:30 NNW 13 4 Light Rain and Fog/Mist OVC007 45 44     95% 39   30.12        
Nov 13 04:10 NNW 14 5 Light Drizzle and Fog/Mist OVC007 46 44     95% 39   30.11        
Nov 13 03:50 N 11 10 Light Rain OVC007 46 44     93% 41   30.08   0    
Nov 13 03:30 N 10 10 Light Rain OVC007 46 45     94% 41   30.07   0    
Nov 13 03:10 N 10 10 Light Rain OVC007 46 45     93% 41   30.07        
Nov 13 02:50 NNW 11 10 Light Rain OVC007 47 45     95% 41   30.06        
Nov 13 02:30 N 9 10 Light Rain OVC007 47 46     95% 43   30.05        
Nov 13 02:10 N 9 10 Light Rain OVC005 47 46     95% 43   30.04        
Nov 13 01:50 N 8 10 Light Rain OVC005 47 46     96% 43   30.03        
Nov 13 01:30 N 8 10 Light Rain OVC005 47 46     97% 43   30.03        
Nov 13 01:10 N 7 7 Light Rain OVC005 47 47     97% 44   30.04        
Nov 13 00:50 N 7 5 Light Rain and Fog/Mist OVC005 48 47     97% 44   30.05        
Nov 13 00:30 N 7 4 Light Rain and Fog/Mist OVC005 48 47     97% 45   30.05        
Nov 13 00:10 N 8 7 Cloudy OVC005 48 47     97% 44   30.05        
Nov 12 23:50 N 7 10 Light Rain OVC005 48 47     96% 45   30.05       0
Nov 12 23:30 N 9 10 Cloudy OVC005 48 47     97% 44   30.06        
Nov 12 23:10 N 7 10 Light Rain OVC005 48 47     97% 45   30.04        
Nov 12 22:50 N 6 7 Fog/Mist OVC005 48 47     97% 45   30.05        
Nov 12 22:30 N 6 3.5 Fog/Mist OVC005 48 47     97% 45   30.05        
Nov 12 22:10 N 9 3.5 Fog/Mist OVC005 48 47     97% 44   30.05        
Nov 12 21:50 N 10 3.5 Fog/Mist OVC005 48 48     97% 44   30.04   0    
Nov 12 21:30 N 8 7 Fog/Mist OVC005 49 48     97% 45   30.04   0    
Nov 12 21:10 N 6 4 Fog/Mist OVC005 48 48     97% 46   30.06        
Nov 12 20:50 N 7 3.5 Fog/Mist OVC005 49 48     97% 45   30.03        
Nov 12 20:30 N 8 3.5 Fog/Mist OVC005 49 48     97% 45   30.02        
Nov 12 20:10 N 6   Cloudy OVC005 50 49     97%     30.03        
Nov 12 19:50 NNE 7 5 Fog/Mist BKN007 OVC011 50 49     95%     30.03        
Nov 12 19:30 N 6 10 Cloudy OVC011 51 49     94%     30.05        
Nov 12 19:10 N 6 10 Cloudy OVC013 51 49     93%     30.05        
Nov 12 18:50 NNE 5 10 Cloudy OVC015 51 49     94%     30.05        
Nov 12 18:30 N 7 10 Cloudy OVC013 51 49     95%     30.05        
Nov 12 18:10 NNW 6 10 Cloudy SCT008 OVC013 50 49     95%     30.05        
Nov 12 17:50 NW 5 10 Cloudy SCT008 OVC013 50 49     94%     30.04        
Nov 12 17:30 NNW 6 10 Cloudy OVC013 50 48     95% 48   30.03        
Nov 12 17:10 NW 6 10 Cloudy OVC013 50 48     93% 47   30.02        
Nov 12 16:50 NNW 5 10 Cloudy OVC015 50 48     93% 48   30.02        
Nov 12 16:30 Calm 10 Cloudy SCT015 OVC041 50 47     91%     30.02        
Nov 12 16:10 Calm 10 Cloudy OVC039 50 47     92%     30        
Nov 12 15:50 Calm 10 Cloudy OVC037 50 47     92%     30        
Nov 12 15:30 SE 5 10 Cloudy SCT015 OVC035 50 48     92% 48   30        
Nov 12 15:10 E 5 10 Cloudy SCT005 BKN015 OVC040 49 47     91% 48   30        
Nov 12 14:50 SSE 7 10 Cloudy SCT007 BKN029 OVC055 50 47     91% 47   30        
Nov 12 14:30 SE 5 10 Cloudy BKN007 BKN013 OVC030 49 47     91% 48   30.03        
Nov 12 14:10 ESE 3 10 Cloudy OVC007 49 47     92% 48   30.02        
Nov 12 13:50 ENE 6 10 Cloudy BKN005 OVC060 49 47     93% 46   30.02        
Nov 12 13:30 E 6 10 Cloudy BKN005 BKN030 OVC060 48 46     95% 45   30.02        
Nov 12 13:10 NE 6 10 Light Rain BKN005 OVC013 47 45     95% 44   30.05        
Nov 12 12:50 NE 5 5 Light Rain and Fog/Mist BKN005 BKN013 OVC029 46 45     97% 44   30.08        
Nov 12 12:30 NE 3 4 Light Rain and Fog/Mist BKN005 BKN021 OVC065 46 45     96% 45   30.1        
Nov 12 12:10 ENE 5 3 Rain and Fog/Mist SCT007 SCT023 OVC055 46 45     96% 44   30.11        
Nov 12 11:50 E 5 2.5 Rain and Fog/Mist BKN005 BKN030 OVC055 46 45     97% 44   30.13       0
Nov 12 11:30 NNE 3 2.5 Rain and Fog/Mist BKN005 OVC022 46 45     97% 45   30.14        
Nov 12 11:10 Calm 4 Light Rain and Fog/Mist BKN005 BKN010 OVC024 46 45     97%     30.15        
Nov 12 10:50 ENE 3 2.5 Rain and Fog/Mist BKN005 BKN012 OVC026 46 45     97% 44   30.15        
Nov 12 10:30 Calm 5 Rain and Fog/Mist BKN005 OVC026 45 44     97%     30.16        
Nov 12 10:10 Calm 3.5 Rain and Fog/Mist OVC005 45 44     97%     30.16        
Nov 12 09:50 Calm 2.5 Rain and Fog/Mist OVC005 45 44     96%     30.17        
Nov 12 09:30 Calm 4 Rain and Fog/Mist BKN005 OVC014 45 44     95%     30.18        
Nov 12 09:10 Calm 5 Light Rain and Fog/Mist SCT005 BKN016 OVC065 45 44     95%     30.17        
Nov 12 08:50 E 3 5 Light Rain and Fog/Mist SCT006 BKN031 OVC090 45 44     97% 44   30.15        
Nov 12 08:30 Calm 4 Light Rain and Fog/Mist SCT006 BKN031 OVC080 44 43     96%     30.17        
Nov 12 08:10 E 5 7 Light Rain and Fog/Mist SCT031 BKN065 OVC075 44 43     95% 42   30.17        
Nov 12 07:50 ESE 6 3.5 Light Rain and Fog/Mist SCT023 OVC029 44 43     95% 41   30.17        
Nov 12 07:30 E 6 3 Rain and Fog/Mist BKN023 BKN031 OVC055 44 43     96% 41   30.18        
Nov 12 07:10 E 5 2.5 Light Rain and Fog/Mist BKN033 BKN048 OVC075 44 43     97% 42   30.19        
Nov 12 06:50 E 3 1.75 Rain and Fog/Mist SCT005 BKN031 OVC037 44 43     97% 43   30.19        
Nov 12 06:30 E 3 2 Rain and Fog/Mist BKN007 OVC033 44 43     97% 43   30.19        
Nov 12 06:10 Calm 4 Rain and Fog/Mist OVC037 44 43     97%     30.18        
Nov 12 05:50 Calm 4 Light Rain and Fog/Mist OVC041 44 43     95%     30.19        
Nov 12 05:30 E 3 5 Light Rain and Fog/Mist OVC043 44 43     95% 43   30.19        
Nov 12 05:10 E 5 7 Light Rain and Fog/Mist OVC045 44 43     95% 42   30.19        
Nov 12 04:50 Calm 7 Light Rain and Fog/Mist BKN047 BKN055 OVC070 44 43     95%     30.2        
Nov 12 04:30 E 5 7 Light Rain SCT050 BKN065 OVC085 44 43     94% 42   30.2        
Nov 12 04:10 ESE 6 5 Rain and Fog/Mist BKN050 OVC065 45 42     92% 41   30.21        
Nov 12 03:50 ESE 3 7 Light Rain OVC050 45 42     91% 43   30.23        
Nov 12 03:30 ESE 3 5 Light Rain and Fog/Mist OVC050 45 42     90% 44   30.23        
Nov 12 03:10 ESE 6 7 Light Rain SCT047 OVC060 45 42     90% 42   30.23        
Nov 12 02:50 SE 5 3.5 Rain and Fog/Mist OVC060 45 43     91% 43   30.24        
Nov 12 02:30 Calm 5 Light Rain and Fog/Mist BKN060 OVC070 45 44     96%     30.25        
Nov 12 02:10 Calm 10 Rain BKN070 OVC095 45 43     92%     30.24        
Nov 12 01:50 Calm 10 Light Rain BKN070 OVC095 46 42     86%     30.23        
Nov 12 01:30 SE 6 10 Light Rain OVC095 46 42     85% 43   30.23        
Nov 12 01:10 SE 5 10 Light Rain SCT065 OVC095 46 42     84% 44   30.24        
Nov 12 00:50 SSE 6 7 Light Rain BKN065 BKN080 BKN120 47 42     83% 44   30.24        
Nov 12 00:30 SE 6 10 Light Rain SCT075 BKN095 BKN120 47 41     79% 45   30.23        
Nov 12 00:10 SE 3 10 Light Rain BKN070 BKN075 OVC095 48 40     73% 48   30.24        
Nov 11 23:50 S 6 10 Light Rain OVC070 50 38     63%     30.24       0
Nov 11 23:30 SSE 7 10 Cloudy OVC070 50 36     59%     30.21        
Nov 11 23:10 SE 7 10 Cloudy OVC070 50 36     60% 47   30.21        
Nov 11 22:50 SSE 6 10 Cloudy BKN070 OVC090 50 36     59% 48   30.22   0    
Nov 11 22:30 ESE 5 10 Cloudy SCT080 OVC090 50 36     60% 48   30.22        
Nov 11 22:10 SE 6 10 Cloudy BKN100 OVC120 50 36     59% 47   30.23        
Nov 11 21:50 SE 7 10 Cloudy BKN100 OVC120 49 36     62% 46   30.23        
Nov 11 21:30 SE 3 10 Cloudy OVC100 48 37     65% 47   30.23        
Nov 11 21:10 SE 3 10 Cloudy OVC090 48 36     63% 48   30.23        
Nov 11 20:50 Calm 10 Cloudy BKN075 OVC090 48 37     66%     30.23        
Nov 11 20:30 Calm 10 Cloudy OVC075 46 38     73%     30.23        
Nov 11 20:10 ESE 5 10 Cloudy OVC075 45 37     76% 42   30.22        
Nov 11 19:50 SE 5 10 Cloudy OVC075 44 39     82% 41   30.23        
Nov 11 19:30 SE 3 10 Cloudy BKN075 OVC110 43 38     85% 41   30.23        
Nov 11 19:10 Calm 10 Mostly Cloudy SCT075 BKN110 41 37     87%     30.24        
Nov 11 18:50 Calm 10 Partly Cloudy SCT065 SCT075 41 38     89%     30.24        
Nov 11 18:30 Calm 10 Clear CLR 41 38     88%     30.24        
Nov 11 18:10 N 3 10 Clear CLR 41 37     86% 40   30.24        
Nov 11 17:50 Calm 10 Clear CLR 43 37     78%     30.24        
Nov 11 17:30 Calm 10 Clear CLR 44 38     79%     30.24        
Nov 11 17:10 Calm 10 Clear CLR 46 38     73%     30.23        
Nov 11 16:50 E 3 10 Clear CLR 48 37     65% 47   30.23        
Nov 11 16:30 Calm 10 Partly Cloudy SCT080 50 38     62%     30.23        
Nov 11 16:10 E 3 10 Cloudy BKN080 OVC095 53 34     50%     30.23        
Nov 11 15:50 NE 3 10 Mostly Cloudy BKN090 53 34     48%     30.24        
Nov 11 15:30 ESE 5 10 Mostly Cloudy BKN080 53 34     48%     30.24        
Nov 11 15:10 SE 3 10 Cloudy OVC080 53 34     48%     30.23        
Nov 11 14:50 SE 5 10 Cloudy OVC090 53 33     47%     30.23        
Nov 11 14:30 ESE 5 10 Cloudy BKN090 OVC100 52 33     48%     30.23        
Nov 11 14:10 E 6 10 Cloudy OVC090 52 33     47%     30.23        
Nov 11 13:50 ESE 5 10 Cloudy OVC100 52 32     46%     30.23        
Nov 11 13:30 ESE 6 10 Cloudy SCT080 OVC100 52 33     50%     30.24        
Nov 11 13:10 SE 6 10 Cloudy SCT080 OVC100 51 33     51%     30.24        
Nov 11 12:50 ESE 5 10 Cloudy OVC100 51 32     49%     30.26        
Nov 11 12:30 SE 6 10 Cloudy OVC100 50 32     49%     30.26        
Nov 11 12:10 SE 6 10 Mostly Cloudy BKN100 BKN120 51 31     48%     30.28        
Nov 11 11:50 SE 6 10 Clear CLR 50 31     47%     30.28   0   0
Nov 11 11:30 S 3 10 Clear CLR 50 31     47%     30.29        
Nov 11 11:10 ESE 6 10 Clear CLR 51 31     46%     30.29        
Nov 11 10:50 SSE 6 10 Partly Cloudy SCT120 50 30     46%     30.31        
Nov 11 10:30 SE 7 10 Mostly Cloudy BKN120 49 29     46% 46   30.3        
Nov 11 10:10 SE 8 10 Partly Cloudy SCT120 49 29     47% 46   30.31        
Nov 11 09:50 SE 8 10 Mostly Cloudy BKN110 47 28     48% 43   30.31        
Nov 11 09:30 SSE 10 10 Partly Cloudy SCT110 47 28     48% 42   30.32        
Nov 11 09:10 SE 8 10 Clear CLR 45 28     50% 41   30.31        
Nov 11 08:50 SE 11 10 Clear CLR 44 27     50% 39   30.31        
Nov 11 08:30 ESE 5 10 Clear CLR 41 29     63% 38   30.32        
Nov 11 08:10 Calm 10 Clear CLR 35 28     78%     30.32        
Nov 11 07:50 Calm 10 Clear CLR 32 26     78%     30.32        
Nov 11 07:30 Calm 10 Clear CLR 30 26     83%     30.32        
Nov 11 07:10 Calm 10 Clear CLR 29 24     81%     30.32        
Nov 11 06:50 NE 3 10 Clear CLR 28 24     86% 24   30.32        
Nov 11 06:30 Calm 10 Clear CLR 27 23     85%     30.32        
Nov 11 06:10 WNW 5 10 Partly Cloudy SCT110 26 23     89% 21   30.31        
Nov 11 05:50 Calm 10 Partly Cloudy SCT110 26 23     87%     30.3   0   0
Nov 11 05:30 Calm 10 Clear CLR 26 24     91%     30.3   0    
Nov 11 05:10 Calm 10 Clear CLR 26 23     89%     30.29        
Nov 11 04:50 Calm 10 Clear CLR 26 23     88%     30.29        
Nov 11 04:30 Calm 10 Clear CLR 26 23     87%     30.29        
Nov 11 04:10 Calm 10 Clear CLR 26 23     87%     30.29        
Nov 11 03:50 Calm 10 Clear CLR 26 22     85%     30.28        
Nov 11 03:30 Calm 10 Clear CLR 26 23     86%     30.28        
Nov 11 03:10 Calm 10 Clear CLR 26 23     87%     30.28        
Nov 11 02:50 Calm 10 Clear CLR 27 23     84%     30.28        
Nov 11 02:30 Calm 10 Clear CLR 27 22     83%     30.29        
Nov 11 02:10 Calm 10 Clear CLR 27 22     82%     30.3        
Nov 11 01:50 Calm 10 Clear CLR 27 23     83%     30.29        
Nov 11 01:30 Calm 10 Clear CLR 28 23     82%     30.29        
Nov 11 01:10 Calm 10 Clear CLR 28 23     80%     30.29        
Nov 11 00:50 Calm 10 Clear CLR 28 23     81%     30.29        
Nov 11 00:30 Calm 10 Clear CLR 27 24     86%     30.29        
Nov 11 00:10 Calm 10 Clear CLR 29 22     77%     30.29        
Nov 10 23:50 Calm 10 Clear CLR 28 24     84%     30.29       0
Nov 10 23:30 Calm 10 Clear CLR 28 23     81%     30.29        
Nov 10 23:10 Calm 10 Clear CLR 28 24     84%     30.3        
Nov 10 22:50 N 3 10 Clear CLR 29 22     75% 26   30.3        
Nov 10 22:30 N 5 10 Clear CLR 29 22     75% 24   30.3        
Nov 10 22:10 NNW 5 10 Clear CLR 29 22     76% 24   30.3        
Nov 10 21:50 N 5 10 Clear CLR 30 23     75% 25   30.3        
Nov 10 21:30 N 5 10 Clear CLR 30 23     74% 25   30.3        
Nov 10 21:10 NNW 5 10 Clear CLR 30 23     76% 25   30.3        
Nov 10 20:50 N 3 10 Clear CLR 30 23     74% 27   30.3     0  
Nov 10 20:30 N 6 10 Clear CLR 30 24     77% 24   30.3        
Nov 10 20:10 N 5 10 Clear CLR 30 24     78% 25   30.31        
Nov 10 19:50 N 6 10 Clear CLR 31 24     74% 25   30.3   0    
Nov 10 19:30 N 6 10 Clear CLR 32 24     70% 27   30.3   0    
Nov 10 19:10 NNE 5 10 Clear CLR 33 24     68% 29   30.31        
Nov 10 18:50 N 7 10 Clear CLR 34 23     64% 28   30.31        
Nov 10 18:30 N 8 10 Clear CLR 35 24     63% 28   30.31        
Nov 10 18:10 N 7 10 Clear CLR 34 25     69% 27   30.32        
Nov 10 17:50 NNW 7 10 Clear CLR 35 25     68% 29   30.32        
Nov 10 17:30 NNW 7 10 Clear CLR 35 26     70% 29   30.31        
Nov 10 17:10 NNW 7 10 Clear CLR 36 25     64% 30   30.31        
Nov 10 16:50 NNW 9 10 Clear CLR 38 24     58% 31   30.31        
Nov 10 16:30 NNW 8 10 Clear CLR 39 25     58% 33   30.31        
Nov 10 16:10 N 9 10 Clear CLR 40 25     53% 35   30.32        
Nov 10 15:50 N 10 10 Clear CLR 42 23     48% 36   30.32        
Nov 10 15:30 N 9 10 Clear CLR 43 23     45% 37   30.32        
Nov 10 15:10 N 9 10 Clear CLR 43 22     44% 37   30.32        
Nov 10 14:50 NNW 7 10 Clear CLR 43 22     44% 38   30.32        
Nov 10 14:30 N 7 10 Clear CLR 44 23     44% 39   30.33        
Nov 10 14:10 NNW 15 10 Clear CLR 43 23     45% 36   30.33        
Nov 10 13:50 NNW 11 10 Clear CLR 43 23     45% 37   30.33        
Nov 10 13:30 NW 9 10 Clear CLR 43 23     45% 37   30.34        
Nov 10 13:10 N 7 10 Clear CLR 42 22     44% 38   30.34        
Nov 10 12:50 N 10 10 Clear CLR 42 23     46% 36   30.34        
Nov 10 12:30 N 9 10 Clear CLR 42 24     48% 37   30.35        
Nov 10 12:10   10 Clear CLR 42 25     52%     30.35        
Nov 10 11:50 N 16 10 Clear CLR 41 24     51% 33   30.36        
Nov 10 11:30 N 10 10 Partly Cloudy SCT032 40 25     54% 34   30.37        
Nov 10 11:10 N 17 10 Partly Cloudy SCT030 40 25     56% 31   30.38        
Nov 10 10:50 N 13 10 Partly Cloudy SCT029 39 26     59% 32   30.39        
Nov 10 10:30 N 15 10 Partly Cloudy SCT029 39 26     58% 31   30.39        
Nov 10 10:10 N 9 10 Partly Cloudy SCT027 37 25     61% 31   30.4        
Nov 10 09:50 N 15 10 Mostly Cloudy BKN027 37 25     61% 29   30.4        
Nov 10 09:30 N 14 10 Mostly Cloudy BKN027 37 26     65% 28   30.4        
Nov 10 09:10 NNE 13 10 Mostly Cloudy BKN025 36 25     63% 28   30.4        
Nov 10 08:50 NNE 14 10 Cloudy OVC025 33 24     67% 24   30.4        
Nov 10 08:30 N 10 10 Cloudy OVC023 33 24     69% 25   30.4        
Nov 10 08:10 N 16 10 Cloudy OVC023 32 25     74% 21   30.39        
Nov 10 07:50   10 Cloudy OVC023 33 25     72%     30.39        
Nov 10 07:30 N 13 10 Partly Cloudy SCT023 33 25     72% 23   30.38        
Nov 10 07:10 N 10 10 Clear CLR 32 25     75% 24   30.37        
Nov 10 06:50 N 10 10 Clear CLR 32 26     77% 23   30.36        
Nov 10 06:30 N 9 10 Clear CLR 31 26     80% 23   30.36        
Nov 10 06:10 N 7 10 Clear CLR 31 26     81% 25   30.35        
Nov 10 05:50 N 10 10 Clear CLR 32 26     80% 23   30.34        
Nov 10 05:30 N 11 10 Clear CLR 32 27     81% 23   30.34        
Nov 10 05:10 N 6 10 Clear CLR 32 27     83% 26   30.33        
Nov 10 04:50 N 7 10 Clear CLR 31 28     87% 24   30.33        
Nov 10 04:30 N 7 10 Partly Cloudy SCT034 31 28     87% 25   30.32        
Nov 10 04:10 NNW 8 10 Partly Cloudy SCT031 32 28     88% 24   30.32        
Nov 10 03:50 NNW 6 10 Partly Cloudy SCT031 32 28     87% 26   30.32        
Nov 10 03:30 NNW 9 10 Clear CLR 33 28     82% 25   30.31        
Nov 10 03:10 N 13 10 Clear CLR 34 28     78% 25   30.31        
Nov 10 02:50 N 13 10 Clear CLR 35 29     78% 26   30.31        
Nov 10 02:30 N 11 10 Partly Cloudy SCT025 SCT033 36 29     78% 28   30.3        
Nov 10 02:10 NNW 9 10 Mostly Cloudy SCT025 BKN035 36 31     81% 29   30.3        
Nov 10 01:50 NNW 6 10 Cloudy SCT025 OVC037 36 31     82% 31   30.3        
Nov 10 01:30 N 5 10 Cloudy OVC037 35 30     82% 31   30.29        
Nov 10 01:10 N 6 10 Cloudy OVC037 36 30     81% 31   30.29        
Nov 10 00:50 NNW 7 10 Cloudy OVC037 37 29     74% 32   30.29        
Nov 10 00:30 NNW 7 10 Mostly Cloudy BKN037 37 29     74% 31   30.29        
Nov 10 00:10 NNW 10 10 Mostly Cloudy BKN037 37 29     73% 30   30.29        
Nov 09 23:50 NNW 15 10 Mostly Cloudy BKN035 37 29     75% 28   30.29        
Nov 09 23:30 NNW 16 10 Mostly Cloudy BKN035 37 30     76% 28   30.29        
Nov 09 23:10 NNW 14 10 Partly Cloudy SCT033 37 31     78% 29   30.29        
Nov 09 22:50 NNW 10 10 Mostly Cloudy BKN033 38 32     79% 31   30.29        
Nov 09 22:30 NNW 13 10 Cloudy OVC029 38 32     78% 31   30.28        
Nov 09 22:10   10 Cloudy OVC029 39 33     79%     30.28        
Nov 09 21:50 NNW 13 10 Partly Cloudy SCT029 39 33     79% 32   30.27        
Nov 09 21:30 NNW 8 10 Clear CLR 38 34     84% 33   30.26        
Nov 09 21:10 NNW 8 10 Clear CLR 39 34     81% 33   30.26        
Nov 09 20:50 NNW 8 10 Clear CLR 40 34     77% 35   30.25        
Nov 09 20:30 NW 9 10 Clear CLR 41 34     76% 35   30.25        
Nov 09 20:10 NNW 10 10 Clear CLR 42 35     76% 36   30.25        
Nov 09 19:50 NW 8 10 Clear CLR 41 36     84% 36   30.24        
Nov 09 19:30 NNW 13 10 Partly Cloudy SCT036 43 36     77% 37   30.23        
Nov 09 19:10 NNW 8 10 Cloudy OVC036 44 37     76% 40   30.23        
Nov 09 18:50 NNW 15 10 Cloudy OVC034 45 37     75% 38   30.23        
Nov 09 18:30 NW 13 10 Cloudy OVC029 45 38     76% 39   30.22        
Nov 09 18:10 NNW 8 10 Cloudy OVC027 45 39     79% 41   30.21        
Nov 09 17:50 N 11 10 Cloudy OVC027 46 37     71% 41   30.2       0
Nov 09 17:30 N 9 10 Cloudy OVC025 45 39     80% 40   30.2        
Nov 09 17:10 N 10 10 Cloudy OVC025 45 39     80% 40   30.19        
Nov 09 16:50 N 10 10 Cloudy OVC025 45 39     78% 40   30.18        
Nov 09 16:30 N 14 10 Cloudy OVC025 46 39     78% 40   30.18        
Nov 09 16:10 N 13 10 Cloudy OVC025 46 40     79% 40   30.17        
Nov 09 15:50   10 Cloudy OVC025 46 39     76%     30.17   0    
Nov 09 15:30 N 13 10 Cloudy OVC025 46 41     80% 41   30.17   0    
Nov 09 15:10   10 Cloudy SCT018 OVC025 46 40     79%     30.16   0    
Nov 09 14:50 NNW 14 10 Cloudy OVC019 47 41     82% 41   30.15        
Nov 09 14:30 NNW 14 10 Cloudy OVC016 46 42     87% 40   30.14        
Nov 09 14:10 NNW 11 10 Cloudy OVC016 46 42     85% 41   30.14        
Nov 09 13:50 NNW 14 10 Cloudy OVC014 47 43     87% 41   30.14        
Nov 09 13:30 NW 13 10 Cloudy BKN014 BKN024 OVC037 47 44     88% 42   30.13        
Nov 09 13:10 NNW 13 10 Cloudy SCT016 BKN024 OVC037 47 44     88% 42   30.12        
Nov 09 12:50 NNW 14 10 Light Rain OVC016 47 44     89% 41   30.12        
Nov 09 12:30 NNW 15 10 Light Rain SCT009 BKN016 OVC023 47 44     90% 41   30.11        
Nov 09 12:10 NNW 14 10 Light Drizzle BKN015 OVC021 47 45     90% 42   30.11        
Nov 09 11:50 NNW 11 10 Light Rain BKN015 OVC021 48 46     92% 43   30.1        
Nov 09 11:30 NW 10 5 Light Rain and Fog/Mist SCT006 BKN013 OVC018 47 45     93% 43   30.11        
Nov 09 11:10 NNW 11 3.5 Light Rain and Fog/Mist SCT009 BKN017 OVC025 47 45     93% 42   30.1        
Nov 09 10:50 NNW 9 10 Light Rain BKN012 OVC025 48 46     92% 44   30.11        
Nov 09 10:30 N 9 10 Light Drizzle OVC012 48 46     92% 44   30.1        
Nov 09 10:10 N 10 10 Cloudy BKN010 OVC015 48 46     93% 43   30.11        
Nov 09 09:50 NW 10 10 Cloudy SCT006 OVC010 48 46     94% 43   30.12        
Nov 09 09:30 N 9 3 Light Drizzle and Fog/Mist BKN005 OVC017 48 47     96% 44   30.1        
Nov 09 09:10 N 14 4 Fog/Mist BKN008 OVC017 49 47     93% 43   30.09        
Nov 09 08:50 N 13 10 Cloudy BKN008 OVC021 50 48     93% 45   30.07        
Nov 09 08:30 NNW 9 10 Cloudy SCT008 OVC021 50 48     94%     30.07        
Nov 09 08:10 NNW 13 10 Cloudy OVC006 50 48     92%     30.06        
Nov 09 07:50   7 Light Rain and Fog/Mist OVC006 53 51     94%     30.05        
Nov 09 07:30 NW 9 4 Light Rain and Fog/Mist OVC006 53 52     96%     30.05        
Nov 09 07:10 WNW 10 1.5 Light Rain and Fog/Mist OVC004 54 53     97%     30.04        
Nov 09 06:50 WNW 11 1.25 Light Rain and Fog/Mist OVC004 55 54     97%     30.03        
Nov 09 06:30 WNW 5 3.5 Light Rain and Fog/Mist OVC006 56 56     98%     30.01        
Nov 09 06:10 WNW 3 3 Fog/Mist OVC006 56 55     98%     29.99        
Nov 09 05:50 Calm 3.5 Light Rain and Fog/Mist OVC006 56 55     98%     29.99        
Nov 09 05:30 Calm 3.5 Fog/Mist OVC006 56 55     97%     29.99        
Nov 09 05:10 SSW 3 7 Fog/Mist OVC004 56 56     97%     29.98        
Nov 09 04:50 Calm 3 Rain and Fog/Mist OVC004 56 56     97%     29.97        
Nov 09 04:30 S 5 7 Rain BKN006 OVC011 57 56     96%     29.97        
Nov 09 04:10 SSE 8 10 Light Rain SCT006 BKN013 OVC020 57 55     96%     29.97        
Nov 09 03:50 SSE 7 4 Light Rain and Fog/Mist SCT009 BKN022 OVC085 56 55     96%     29.98        
Nov 09 03:30 S 7 7 Light Rain SCT005 SCT029 OVC085 56 55     96%     29.98        
Nov 09 03:10 SSE 5 10 Light Rain BKN003 BKN036 OVC085 56 55     97%     29.98        
Nov 09 02:50 SSE 6 2.5 Light Rain and Fog/Mist SCT005 BKN025 OVC080 55 55     98%     29.98        
Nov 09 02:30 SSE 5 2.5 Rain and Fog/Mist BKN007 OVC024 55 54     98%     30        
Nov 09 02:10 WNW 7 5 Light Rain and Fog/Mist OVC007 56 55     96%     30.02        
Nov 09 01:50 SSE 5 10 Cloudy OVC009 56 54     94%     30.01        
Nov 09 01:30 S 3 10 Cloudy OVC009 56 54     94%     30.02        
Nov 09 01:10 SSW 5 10 Cloudy OVC009 56 54     94%     30.03        
Nov 09 00:50 SSE 6 10 Cloudy OVC009 55 54     94%     30.02        
Nov 09 00:30 SSE 5 10 Cloudy OVC007 55 54     94%     30.03        
Nov 09 00:10 SSE 6 10 Cloudy OVC007 55 53     95%     30.03        
Nov 08 23:50 SSE 7 10 Cloudy BKN007 OVC012 55 53     94%     30.02        
Nov 08 23:30 SE 7 10 Cloudy OVC009 54 53     94%     30.03        
Nov 08 23:10 SE 8 10 Cloudy OVC009 54 53     94%     30.04        
Nov 08 22:50 SE 7 10 Cloudy OVC007 54 52     94%     30.04        
Nov 08 22:30 SE 6 10 Cloudy OVC009 54 52     95%     30.06        
Nov 08 22:10 Calm 10 Cloudy OVC011 52 51     97%     30.06        
Nov 08 21:50 Calm 5 Fog/Mist SCT007 OVC011 51 51     97%     30.06        
Nov 08 21:30 Calm 5 Fog/Mist BKN007 OVC011 51 50     97%     30.07        
Nov 08 21:10 Calm 5 Fog/Mist OVC009 51 50     96%     30.08        
Nov 08 20:50 Calm 7 Fog/Mist OVC007 51 50     95%     30.08        
Nov 08 20:30 NE 3 5 Fog/Mist OVC009 51 50     95%     30.08        
Nov 08 20:10 Calm 10 Cloudy OVC009 51 50     94%     30.08        
Nov 08 19:50 Calm 10 Cloudy OVC011 51 49     94%     30.09        
Nov 08 19:30 NE 3 10 Cloudy OVC011 51 49     94%     30.09        
Nov 08 19:10 NNE 3 7 Fog/Mist OVC011 51 49     93%     30.09        
Nov 08 18:50 NNE 5 10 Cloudy OVC013 51 49     92%     30.09        
Nov 08 18:30 NNE 6 7 Light Rain OVC013 52 49     90%     30.09        
Nov 08 18:10 N 7 10 Light Drizzle OVC015 52 49     90%     30.09        
Nov 08 17:50 NE 5 10 Cloudy OVC015 52 48     85%     30.09        
Nov 08 17:30 NNE 6 10 Cloudy OVC015 53 48     85%     30.09        
Nov 08 17:10 NNE 7 10 Cloudy OVC017 53 48     85%     30.09        
Nov 08 16:50 NE 6 10 Cloudy OVC017 53 47     83%     30.09        
Nov 08 16:30 NE 5 10 Cloudy OVC021 53 47     82%     30.09        
Nov 08 16:10 NE 5 10 Cloudy OVC021 53 48     83%     30.1        
Nov 08 15:50 NNE 6 10 Cloudy OVC021 53 48     84%     30.1        
Nov 08 15:30 NE 6 10 Cloudy OVC023 52 48     85%     30.1        
Nov 08 15:10 NNE 6 10 Cloudy OVC023 52 48     86%     30.1        
Nov 08 14:50 N 7 10 Cloudy OVC025 52 47     85%     30.1        
Nov 08 14:30 NNE 8 10 Cloudy OVC029 51 48     87%     30.1        
Nov 08 14:10 NNE 7 10 Cloudy OVC029 51 47     87%     30.11        
Nov 08 13:50 N 9 7 Light Rain OVC029 52 47     83%     30.11        
Nov 08 13:30 N 6 10 Cloudy OVC027 53 44     73%     30.12        
Nov 08 13:10 NNE 6 10 Cloudy OVC025 53 44     71%     30.12        
Nov 08 12:50 NE 7 10 Cloudy SCT025 OVC033 53 44     70%     30.12        
Nov 08 12:30 NNE 9 10 Cloudy SCT027 OVC035 53 43     70%     30.12        
Nov 08 12:10 N 8 10 Cloudy OVC027 52 43     72%     30.13        
Nov 08 11:50 N 9 10 Cloudy BKN025 OVC031 52 43     72%     30.14        
Nov 08 11:30 N 11 10 Cloudy SCT024 OVC032 51 43     73%     30.15        
Nov 08 11:10 N 10 10 Cloudy OVC036 51 42     70%     30.16        
Nov 08 10:50 N 9 10 Cloudy OVC038 51 41     70%     30.16        
Nov 08 10:30 N 13 10 Cloudy OVC040 51 41     69%     30.17        
Nov 08 10:10 N 9 10 Cloudy OVC042 51 41     70%     30.17        
Nov 08 09:50 N 13 10 Cloudy OVC042 51 41     71%     30.17        
Nov 08 09:30 N 13 10 Cloudy OVC042 51 42     72%     30.17        
Nov 08 09:10 N 11 10 Cloudy OVC040 51 43     74%     30.17        
Nov 08 08:50 N 10 10 Cloudy OVC040 51 44     75%     30.16        
Nov 08 08:30 N 8 10 Cloudy OVC040 51 45     77%     30.16        
Nov 08 08:10 N 13 10 Cloudy OVC040 52 44     74%     30.15        
Nov 08 07:50 NNE 7 10 Cloudy OVC040 52 44     76%     30.14        
Nov 08 07:30 N 8 10 Cloudy BKN040 OVC050 51 44     76%     30.15        
Nov 08 07:10 N 6 10 Cloudy OVC050 51 44     78%     30.14        
Nov 08 06:50 N 6 10 Cloudy OVC050 51 44     78%     30.14        
Nov 08 06:30 N 7 10 Cloudy SCT038 OVC060 51 44     78%     30.12        
Nov 08 06:10 NNE 9 10 Cloudy BKN040 OVC060 50 44     80%     30.12        
Nov 08 05:50 N 7 10 Cloudy SCT040 BKN060 OVC110 50 45     83%     30.12        
Nov 08 05:30 N 5 10 Cloudy BKN040 BKN060 OVC110 50 45     82%     30.12        
Nov 08 05:10 N 6 10 Cloudy OVC040 50 45     85% 48   30.13        
Nov 08 04:50 N 7 10 Cloudy BKN040 OVC060 50 45     84% 47   30.12        
Nov 08 04:30 N 8 10 Cloudy BKN040 OVC060 50 45     83%     30.12        
Nov 08 04:10 N 9 10 Cloudy OVC042 50 45     83%     30.13        
Nov 08 03:50 N 10 10 Cloudy OVC042 50 46     84%     30.12        
Nov 08 03:30 N 8 10 Cloudy OVC042 50 46     84%     30.11        
Nov 08 03:10 N 6 10 Cloudy OVC044 51 46     84%     30.12        
Nov 08 02:50 N 7 10 Cloudy OVC044 51 46     85%     30.12        
Nov 08 02:30 N 6 10 Cloudy OVC044 51 46     86%     30.11        
Nov 08 02:10 N 8 10 Cloudy OVC044 51 47     86%     30.12        
Nov 08 01:50 N 9 10 Cloudy OVC046 51 47     87%     30.12        
Nov 08 01:30 N 6 10 Cloudy BKN048 OVC050 51 47     87%     30.12        
Nov 08 01:10 N 7 10 Cloudy OVC055 50 47     88%     30.12        
Nov 08 00:50 N 7 10 Cloudy OVC055 51 47     87%     30.12        
Nov 08 00:30 N 9 10 Cloudy OVC049 51 47     87%     30.12        
Nov 08 00:10 N 8 10 Cloudy OVC049 51 47     86%     30.12        
Nov 07 23:50 N 7 10 Cloudy OVC049 51 47     86%     30.12       0
Nov 07 23:30 N 5 10 Cloudy OVC047 52 47     84%     30.13        
Nov 07 23:10 N 6 10 Cloudy OVC047 51 47     84%     30.13        
Nov 07 22:50 N 7 10 Cloudy OVC047 51 47     85%     30.13        
Nov 07 22:30 N 6 10 Cloudy OVC047 51 47     84%     30.13        
Nov 07 22:10 N 6 10 Cloudy OVC047 51 47     83%     30.13        
Nov 07 21:50 N 6 10 Cloudy OVC047 51 46     83%     30.14   0    
Nov 07 21:30 N 3 10 Mostly Cloudy BKN047 51 46     83%     30.13   0    
Nov 07 21:10 NNE 3 10 Clear CLR 51 46     81%     30.12   0    
Nov 07 20:50 N 8 10 Partly Cloudy SCT046 51 46     81%     30.1        
Nov 07 20:30 N 7 10 Mostly Cloudy BKN046 52 46     79%     30.11        
Nov 07 20:10 N 8 10 Partly Cloudy SCT046 53 46     77%     30.11        
Nov 07 19:50 N 7 10 Mostly Cloudy BKN046 53 46     76%     30.11        
Nov 07 19:30 N 8 10 Cloudy OVC046 54 47     76%     30.11        
Nov 07 19:10 N 9 10 Cloudy OVC044 55 47     75%     30.11        
Nov 07 18:50 N 5 10 Cloudy OVC040 55 47     74%     30.12        
Nov 07 18:30 N 7 10 Cloudy OVC040 55 46     72%     30.11        
Nov 07 18:10 N 7 10 Cloudy OVC042 55 46     71%     30.11        
Nov 07 17:50 NNE 6 10 Cloudy OVC040 55 46     71%     30.11        
Nov 07 17:30 NNE 7 10 Cloudy OVC040 55 46     71%     30.11        
Nov 07 17:10 NNE 7 10 Cloudy OVC040 55 46     72%     30.11        
Nov 07 16:50 NNE 6 10 Cloudy OVC040 54 47     76%     30.1        
Nov 07 16:30 NNE 10 10 Cloudy SCT012 OVC040 55 46     72%     30.09        
Nov 07 16:10 N 10 10 Light Rain SCT012 OVC042 55 48     78%     30.1        
Nov 07 15:50 N 9 5 Light Rain OVC042 54 48     79%     30.09        
Nov 07 15:30 NNE 9 10 Cloudy OVC044 56 48     76%     30.09        
Nov 07 15:10 NNE 9 10 Cloudy BKN042 OVC050 56 49     78%     30.08        
Nov 07 14:50 NNE 9 10 Cloudy SCT042 OVC060 55 49     80%     30.08        
Nov 07 14:30 NNE 9 10 Mostly Cloudy SCT042 BKN060 BKN070 55 49     80%     30.08        
Nov 07 14:10 NNE 6 10 Partly Cloudy SCT040 SCT070 SCT120 55 50     84%     30.07        
Nov 07 13:50 NNE 7 10 Mostly Cloudy BKN042 54 50     85%     30.07        
Nov 07 13:30 NNE 5 10 Light Rain BKN044 BKN070 OVC100 53 49     87%     30.1        
Nov 07 13:10 N 6 10 Cloudy SCT044 BKN100 OVC120 53 50     89%     30.09        
Nov 07 12:50 N 5 10 Light Rain SCT080 OVC100 53 49     89%     30.09        
Nov 07 12:30 N 9 10 Light Rain BKN090 OVC110 52 49     89%     30.11        
Nov 07 12:10 NNW 11 10 Light Rain OVC110 53 49     88%     30.11        
Nov 07 11:50 N 7 10 Light Rain OVC110 53 49     85%     30.1        
Nov 07 11:30 ENE 9 10 Light Rain SCT080 OVC100 54 48     82%     30.09        
May 15 10:55 SSW 8 10 Clear CLR 85 68     56%   88 30        
Notice The following observation data may not be complete
May 15 09:55   10 Clear CLR          %              
May 14 19:55 ESE 3 10 Clear   78 66     66%   78 29.95        
May 14 17:35 N 3 10 Clear CLR 88 61     41%   88 29.96        
May 14 09:55 N 3 10 Clear CLR 82 66     59%   84 30.08        
May 14 02:35 Calm 7 Clear CLR 65 64     97%     30.03        
May 14 01:15 Calm 10 Clear CLR 66 65     95%     30.06        
May 14 00:55 Calm 10 Clear CLR 66 64     94%     30.06        
May 14 00:15 Calm 10 Clear CLR 67 65     93%     30.08        
May 13 23:35 Calm 10 Clear CLR 68 66     92%     30.08        
May 13 10:15 WSW 8 10 Clear CLR 83 62     49%   84 30.16        
Notice The following observation data may not be complete
May 13 02:55   10 Clear CLR          %              
May 13 00:35 Calm 10 Clear CLR 63 60     90%     30.09        
May 12 23:55 SSE 3 10 Clear CLR 66 61     84%     30.08        
May 12 21:15 Calm 10 Clear CLR 69 62     78%     30.1        
May 12 17:15 SSW 8 10 Clear CLR 86 56     36%   85 30.09        
May 12 16:55 WNW 8 10 Clear CLR 86 56     36%   85 30.09        
May 12 16:35 NW 7 10 Clear CLR 87 56     35%   85 30.09        
Notice The following observation data may not be complete
May 12 15:35   10 Clear CLR          %              
May 11 21:35 S 8 10 Clear CLR 74 58     59%   73 30.06        
May 11 21:15 S 6 10 Clear CLR 73 60     63%   73 30.06        
May 11 17:15 SW 14 10 Clear CLR 87 60     41%   86 30.05        
Notice The following observation data may not be complete
May 11 13:15   10 Clear CLR          %              
Notice The following observation data may not be complete
Jun 12 08:35   10 Mostly Cloudy SCT018 BKN026 BKN100          %              
Jun 12 04:15 Calm 10 Clear CLR 72 66     83%   72 30.12        
Jun 12 04:00 Calm 10 Clear CLR 72 66     83%   72 30.12        
Jun 12 00:15 Calm 10 Clear CLR 70 66     88%     30.12        
Jun 11 12:55 SE 7 10 Partly Cloudy SCT047 SCT055 86        %     30.16        
Jun 11 11:55 SSE 9 10 Partly Cloudy SCT065 84        %     30.17        
Jun 11 06:55 ESE 3 10 Clear CLR 68 61     78%     30.14        
Jun 11 02:35 Calm 10 Clear   63 61     94%     30.1        
Jun 11 02:15 Calm 10 Clear CLR 63 61     94%     30.11        
Jun 09 23:35 Calm 10 Partly Cloudy SCT060 63 59     88%     30.01        
Jun 09 21:35 Calm 10 Clear CLR 64 59     83%     29.98        
Jun 09 20:15 Calm 10 Clear CLR 70 59     69%     29.95        
Notice The following observation data may not be complete
Jun 09 19:15   10 Clear CLR          %              
Jun 09 18:55 Calm 10 Clear CLR 79        %     29.94        
Jun 09 16:35 Calm 10 Clear CLR 79        %     29.95        
Jun 09 10:15 ESE 3 10 Clear CLR 73 55     53%   73 30        
Notice The following observation data may not be complete
Jun 09 04:35   10 Clear CLR          %              
Jun 09 03:35 Calm 10 Clear CLR 55 54     94%     29.93        
Jun 08 21:35 Calm 10 Clear CLR 63 54     72%     29.92        
Jun 08 20:35 N 3 10 Clear CLR 68 54     60%     29.9        
Jun 08 07:55 N 6 10 Clear CLR 61 54     77%     29.96        
Jun 08 06:55 Calm 10 Clear CLR 57 54     88%     29.94        
Jun 07 14:55 N 13 10 Partly Cloudy SCT060 77        %     29.88        
Jun 07 13:55 NNE 11 10 Partly Cloudy SCT060 79        %     29.88        
Jun 07 12:35 NNE 11 10 Clear   77        %     29.9        
Notice The following observation data may not be complete
Jun 06 15:15   10 Clear CLR          %              
Jun 06 07:15 Calm 10 Mostly Cloudy SCT060 BKN080 68 68     100%     29.83        
Jun 06 06:55 Calm 7 Light Rain SCT033 BKN060 OVC085 68 68     100%     29.84   0    
Jun 06 05:55 Calm 10 Light Rain BKN003 OVC009 68 68     100%     29.83        
Jun 06 03:55 Calm 10 Mostly Cloudy BKN007 BKN110 68 66     94%     29.81        
Jun 05 19:15 Calm 10 Light Drizzle SCT050 73 68     83%   74 29.8